Theta_e
305 304 303 303 303 303 303 303 303 304 304 306 306 306 309 309 311 309 310 311 315 317 317 317 314 314 313 312 312 312 311 311 312 311 311 308 309 308 308 308 308 308 308
303 303 303 303 303 303 303 304 304 305 305 306 306 307 308 309 310 311 312 313 315 314 313 314 313 313 313 312 311 311 310 310 309 309 307 307 306 307 307 308 308 308 306
304 303 303 303 303 304 303 304 305 306 306 306 307 307 307 306 309 309 310 311 312 312 312 312 312 312 311 310 309 309 308 306 305 305 305 305 305 305 307 307 308 308 307
304 304 304 304 304 304 304 305 306 305 306 307 307 307 307 308 309 307 308 310 310 311 311 310 310 309 307 307 306 305 304 304 305 305 305 304 305 305 306 306 306 306 307
303 303 303 304 304 303 303 304 305 306 307 306 306 306 306 307 306 305 307 309 310 310 308 306 305 303 303 302 305 305 306 305 306 306 305 306 305 305 305 306 306 306 306
303 302 303 305 303 304 304 304 306 306 306 305 304 304 304 306 305 304 306 307 307 307 306 303 303 304 305 303 303 303 303 303 304 305 305 306 305 304 304 305 305 306 306
302 301 302 302 303 303 301 301 302 302 303 304 304 303 304 303 304 304 304 304 304 305 306 306 306 306 306 305 306 305 305 304 303 304 305 305 305 303 303 304 305 305 306
302 302 302 302 302 302 301 302 302 304 306 305 304 306 304 303 304 304 305 306 306 306 306 304 303 304 302 300 301 304 306 306 306 305 305 304 303 302 303 303 303 304 304
302 302 302 302 302 302 302 303 305 307 307 306 306 306 305 303 301 302 304 306 307 306 306 302 302 302 301 301 302 305 306 306 306 304 303 302 303 303 302 303 303 304 304
302 302 302 303 304 303 303 305 307 307 306 305 305 306 303 305 300 300 303 306 305 304 304 303 301 300 302 302 305 305 304 306 306 305 305 305 303 302 301 302 302 303 303
303 303 304 305 305 306 307 306 306 306 306 306 306 306 304 301 298 298 297 302 303 302 301 301 300 300 300 299 301 302 303 304 304 304 303 302 302 302 302 302 303 303 302
304 304 305 305 305 305 305 305 305 305 305 304 304 303 303 304 300 299 299 300 302 302 301 300 301 300 300 300 300 299 300 300 301 301 301 302 302 302 302 302 302 302 302
305 305 305 305 304 303 303 302 303 303 303 303 303 303 301 300 299 299 299 300 301 302 302 301 300 301 301 301 300 300 301 301 300 301 301 301 301 301 302 301 301 302 301
305 304 304 302 301 300 301 300 298 298 299 301 301 301 301 299 297 297 299 300 301 301 301 302 301 301 301 301 301 301 301 299 301 300 300 300 301 301 300 301 300 301 300
304 304 303 303 303 302 297 297 297 294 293 295 297 300 297 297 295 295 295 296 297 298 299 300 300 300 300 300 299 299 299 298 299 300 299 300 300 300 300 300 299 300 300
303 302 302 303 303 303 304 303 299 298 294 293 293 294 297 294 294 295 296 297 298 299 301 301 300 300 300 299 299 299 299 298 299 300 300 299 299 298 299 299 298 300 299
302 303 303 303 303 303 303 303 304 297 296 295 295 294 295 295 296 297 298 298 299 300 301 301 301 300 300 299 298 298 299 298 299 300 299 298 297 297 297 298 298 298 298
303 301 303 302 302 303 303 303 302 302 302 300 297 297 297 297 297 298 299 301 301 301 301 300 300 300 299 298 297 298 298 298 299 299 299 297 296 296 297 297 297 298 298
301 302 303 303 302 302 303 302 302 301 301 301 300 299 299 299 299 299 300 301 301 300 299 299 298 297 297 297 297 297 298 297 298 299 297 296 295 295 296 296 296 296 297
302 299 301 303 303 303 303 303 302 302 302 301 300 299 300 301 301 301 301 301 300 300 299 298 297 297 297 297 297 297 297 296 297 297 295 295 294 294 295 295 296 296 296
303 303 301 303 303 302 303 303 303 302 302 302 301 299 299 298 301 301 301 300 300 300 299 298 297 297 297 297 296 296 296 295 296 296 295 294 294 294 294 295 296 296 296
303 302 302 303 303 302 302 303 303 302 302 302 301 301 300 301 301 301 301 300 299 299 299 298 297 297 296 296 295 295 295 293 295 294 294 294 294 294 294 295 295 295 294
303 303 303 303 303 302 303 303 302 302 302 302 301 301 301 301 301 301 300 300 299 299 298 298 297 296 296 295 294 294 293 293 293 293 295 294 294 293 294 294 295 294 294
304 303 303 303 302 302 302 303 303 302 302 302 301 301 301 301 301 300 300 299 299 298 298 298 297 296 295 294 293 292 292 293 293 293 295 294 293 293 293 294 294 294 294
304 303 303 303 303 303 303 303 303 303 303 302 302 301 301 301 300 300 300 299 299 298 298 298 298 296 295 293 291 291 292 294 293 296 295 294 294 294 295 295 295 294 295
304 303 303 303 304 303 303 303 303 303 303 302 302 302 302 301 300 300 300 299 299 298 298 298 298 297 295 294 291 291 292 294 294 296 296 296 295 295 295 296 295 295 295
Wind_Speed
21 22 21 21 19 18 17 17 17 18 20 19 18 20 19 23 21 22 22 23 19 15 13 7 6 7 10 13 13 14 17 16 9 18 15 16 12 13 12 9 10 11 11
20 20 19 18 18 17 17 17 17 16 18 14 15 18 23 19 20 16 16 15 11 9 7 5 8 9 12 12 10 10 14 13 13 13 13 10 14 9 10 12 11 9 11
19 20 18 17 17 18 20 21 20 17 18 15 15 16 17 19 15 16 15 14 11 10 9 10 13 11 11 13 14 11 13 11 11 9 10 12 11 10 12 12 10 10 12
19 21 21 18 17 15 16 16 16 17 16 16 16 16 16 16 11 16 15 13 11 12 11 11 11 11 11 11 10 10 9 10 9 9 9 12 10 10 8 12 13 9 12
17 17 19 17 17 20 22 21 16 18 15 17 17 16 16 16 14 17 13 13 14 11 12 11 10 8 8 9 8 9 11 15 10 8 8 7 7 9 11 12 11 11 11
16 18 18 24 17 17 17 17 16 17 18 18 18 18 18 16 16 13 12 14 13 12 11 10 10 10 10 7 10 11 10 10 12 9 8 11 12 13 15 16 17 15 6
14 15 16 16 16 16 16 16 17 17 17 18 20 21 24 25 26 22 19 17 15 12 11 11 10 10 11 12 11 10 7 9 11 12 11 9 11 13 16 18 14 15 12
13 14 15 16 14 15 16 16 16 15 16 17 17 18 20 18 17 15 12 14 13 11 10 14 15 15 17 17 14 13 12 13 11 7 8 10 11 13 14 18 16 16 13
12 13 13 12 11 11 12 14 13 13 14 14 15 16 18 18 22 19 16 11 5 8 7 14 18 16 18 17 13 16 16 14 2 5 11 9 11 15 15 14 15 15 12
11 11 8 7 11 11 9 8 8 9 8 8 12 14 16 16 21 21 22 14 13 15 13 12 19 19 18 20 16 16 14 14 8 10 13 11 11 9 10 7 11 13 11
8 7 6 9 8 8 8 10 10 6 8 9 9 12 13 15 17 21 22 16 17 16 17 16 16 14 13 16 17 16 13 12 15 14 12 12 13 14 13 14 10 9 10
5 7 7 6 8 8 11 11 13 13 11 9 11 13 14 9 13 15 16 18 13 15 15 16 13 13 12 8 15 18 14 13 15 20 18 16 15 14 14 11 11 11 7
8 8 10 12 12 12 15 16 15 16 14 15 15 14 15 17 18 21 11 11 16 10 14 11 14 12 14 8 5 9 12 15 15 18 16 16 17 15 11 14 13 12 8
9 9 10 12 14 15 14 16 18 18 16 16 16 15 15 16 19 19 18 18 17 16 20 15 16 15 14 16 18 18 19 19 12 15 17 17 18 19 17 14 15 16 12
9 8 8 10 9 11 14 14 14 17 16 13 12 13 15 14 15 15 17 16 17 17 17 16 17 18 18 19 19 19 19 21 22 15 17 20 17 18 17 17 14 14 8
7 9 8 8 8 7 5 3 6 10 15 17 15 12 10 13 12 12 13 14 18 15 15 17 18 19 20 20 21 21 21 21 22 21 19 18 20 18 17 15 14 13 10
7 7 6 7 7 8 8 9 4 3 6 12 15 17 17 17 15 14 14 14 10 18 17 18 19 20 21 21 22 22 22 22 21 22 19 20 18 18 17 14 13 14 12
3 5 5 8 8 8 7 7 8 9 6 2 6 7 14 12 12 18 20 16 17 18 19 20 20 21 21 22 23 23 23 23 21 19 18 20 19 17 15 15 16 12 12
7 5 7 5 6 5 8 8 8 9 9 10 12 8 10 12 9 11 16 17 18 19 20 20 21 22 22 22 23 23 24 24 20 20 23 21 20 19 17 16 15 15 12
3 5 6 7 7 7 7 8 8 7 8 8 12 13 12 14 13 14 15 17 18 19 20 21 21 22 22 23 23 24 25 25 22 20 25 23 21 19 17 17 14 12 9
1 1 4 6 6 8 7 7 7 8 8 8 7 10 9 11 12 13 14 16 18 19 20 21 22 23 23 23 24 25 26 27 24 21 27 25 23 20 18 16 13 9 7
2 4 6 6 7 7 8 7 7 8 8 9 9 5 8 8 11 12 13 15 16 17 18 20 22 23 24 24 25 26 26 27 23 25 31 26 22 19 17 14 11 7 7
3 5 6 5 5 4 5 7 8 11 9 8 9 9 9 10 10 12 12 13 15 16 17 19 21 22 23 24 24 25 25 25 22 24 31 26 21 19 16 12 9 8 8
4 4 6 6 6 8 7 9 6 3 6 9 9 9 9 9 9 10 11 12 13 14 16 17 19 22 22 24 24 25 23 26 26 23 28 24 21 19 14 11 8 7 8
7 6 5 5 7 7 7 7 9 8 9 8 9 9 10 9 9 9 9 12 11 12 14 15 18 20 21 23 25 27 25 24 29 24 26 23 22 17 15 11 9 7 8
3 4 5 6 7 8 8 9 10 9 10 9 8 9 9 9 9 9 9 10 11 11 12 14 15 17 21 23 27 29 27 24 29 22 28 23 24 21 17 13 11 11 11
Wind_Direction
348 344 342 339 337 333 331 328 327 323 317 315 316 316 311 331 303 301 298 291 287 285 283 284 300 277 285 284 285 295 294 289 286 302 310 324 309 314 309 297 287 279 282
348 344 343 341 341 339 336 333 332 327 332 325 325 331 344 347 345 325 316 320 344 2 347 320 302 303 294 320 318 307 314 315 334 327 317 311 313 291 283 283 279 283 276
349 348 349 348 349 345 342 337 334 334 339 341 340 335 339 341 348 11 8 2 343 343 334 327 333 347 348 346 341 338 333 333 322 318 315 309 293 282 271 284 288 275 271
354 351 349 344 345 342 337 338 343 341 341 340 345 343 336 328 352 356 347 332 333 344 12 39 27 18 8 350 339 335 337 316 314 306 327 341 348 336 322 316 309 293 284
355 353 349 341 347 353 348 357 352 350 356 2 355 351 346 341 355 341 339 337 356 49 48 44 29 16 5 19 8 351 336 344 327 347 335 324 335 338 329 331 313 315 310
351 355 351 3 7 0 3 1 6 13 13 15 11 8 4 2 357 11 32 50 41 43 41 36 31 33 350 356 356 342 329 339 345 349 334 338 5 357 350 334 324 322 327
358 356 2 6 11 10 15 18 23 28 22 22 37 46 42 43 51 56 56 58 58 55 50 38 22 1 357 348 334 326 324 329 314 309 330 337 333 359 339 328 324 320 308
0 5 12 13 18 22 29 31 25 24 31 34 45 43 46 42 41 26 22 53 52 46 40 24 7 6 356 346 328 313 302 279 279 303 332 335 329 328 331 331 322 307 306
11 16 17 15 23 19 27 33 30 30 43 55 54 48 45 34 20 11 5 341 31 43 60 50 24 7 1 358 338 325 328 349 291 294 310 311 316 313 320 320 335 333 329
20 25 25 33 45 41 32 25 12 24 42 56 59 46 31 27 17 23 8 11 23 20 55 31 22 25 25 22 11 5 349 9 6 331 332 331 331 336 320 322 337 330 336
46 52 58 33 35 25 21 28 1 13 35 35 42 50 53 49 38 36 30 27 12 26 20 13 13 2 8 18 19 9 355 346 342 349 356 346 340 349 352 349 340 328 326
47 58 59 48 57 36 24 31 31 16 35 54 45 38 35 39 30 13 33 35 22 24 27 24 10 1 339 2 20 9 360 342 349 14 6 353 349 352 348 338 328 341 342
97 76 53 53 40 39 43 29 22 19 27 24 22 36 35 24 16 7 345 15 9 359 352 353 357 348 6 334 345 9 18 12 12 358 357 349 348 336 347 349 356 349 9
67 66 68 64 59 47 39 46 39 28 16 17 22 16 24 25 17 13 11 10 7 9 350 0 0 3 4 4 5 2 8 2 6 15 353 350 349 347 359 1 350 347 349
64 53 65 67 62 78 61 54 48 41 35 26 14 18 15 14 5 13 14 4 357 347 344 10 10 10 9 8 5 5 6 5 351 11 6 348 353 351 347 351 355 333 337
54 66 32 40 41 42 73 105 38 45 44 42 41 39 24 14 13 7 359 11 10 348 3 11 11 8 6 4 1 3 2 6 359 8 2 355 349 343 339 343 341 327 340
44 14 48 35 28 23 19 9 107 131 86 54 44 39 37 33 23 3 347 328 356 4 16 11 8 5 3 1 360 1 358 2 5 9 3 357 347 340 336 336 333 347 341
45 36 22 17 14 4 16 10 25 20 34 129 46 40 18 14 26 23 9 15 20 17 11 10 6 3 2 1 358 360 357 359 8 5 0 350 341 334 329 333 332 335 337
15 15 348 16 22 359 5 18 25 25 20 22 12 353 347 343 1 11 13 15 16 16 10 8 7 3 2 1 358 358 358 358 11 6 351 341 341 339 333 332 332 336 334
98 24 340 339 9 11 13 12 16 20 18 25 23 7 3 359 20 17 20 17 15 16 11 6 8 5 3 1 358 357 359 357 360 1 353 346 344 342 335 334 335 334 345
332 247 345 328 10 3 5 7 7 6 8 17 43 25 359 325 16 18 16 15 14 12 12 7 8 7 4 3 0 360 360 356 354 354 344 341 342 340 341 345 349 355 10
336 350 345 354 358 16 350 351 359 359 6 5 5 30 1 359 14 15 15 11 13 12 13 11 10 10 7 4 2 359 360 355 351 349 346 341 342 345 349 353 2 27 43
302 323 319 335 354 313 284 350 1 352 352 3 0 2 3 7 10 10 10 10 10 14 11 13 13 11 10 7 5 2 359 354 348 343 346 348 346 350 354 2 24 49 60
295 325 326 337 13 328 0 335 352 323 335 352 358 353 357 356 2 6 4 5 11 11 15 17 18 15 13 11 8 4 359 357 358 348 358 354 352 355 9 17 41 63 75
355 348 337 343 341 340 336 331 340 339 338 346 346 348 350 348 355 0 360 1 4 14 14 16 20 17 15 12 8 5 6 7 8 11 13 18 20 28 31 40 56 76 74
330 358 332 334 341 340 339 338 337 336 343 338 341 340 339 342 352 352 354 7 355 9 12 17 17 19 16 12 10 11 12 12 11 18 17 23 28 31 45 53 68 80 85